Chatham, MA

3:19 PM EDT on March 27, 2017 (GMT -0400)
Chatham Municipal

Weather History for KCQX - November, 2012

Change the Weather History Date:

Friday, November 16, 2012

  Actual Average Record
Temperature  
Mean Temperature 42 °F -  
Max Temperature 46 °F 48 °F 66 °F (2006)
Min Temperature 39 °F 36 °F 26 °F (2014)
Degree Days  
Heating Degree Days 22    
Moisture  
Dew Point 34 °F    
Average Humidity 71    
Maximum Humidity 77    
Minimum Humidity 63    
Precipitation  
Precipitation 0.00 in - - ()
Sea Level Pressure  
Sea Level Pressure 30.31 in    
Wind  
Wind Speed 5 mph (NNE)    
Max Wind Speed 8 mph    
Max Gust Speed 16 mph    
Visibility 10 miles    
Events      
Averages and records for this station are not official NWS values.
T = Trace of Precipitation, MM = Missing Value Source: NWS Daily Summary

Daily Weather History Graph

Daily Weather History Graph

Search for Another Location

Airport or City:

Trip Planner

Search our weather history database for the weather conditions in past years. The results will help you decide how hot, cold, wet, or windy it might be!

Date:

Astronomy

Nov. 16, 2012 Rise Set
Actual Time 6:30 AM EST 4:18 PM EST
Civil Twilight 6:00 AM EST 4:48 PM EST
Nautical Twilight 5:27 AM EST 5:22 PM EST
Astronomical Twilight 4:54 AM EST 5:54 PM EST
Moon 9:23 AM EST (11/16) 7:13 PM EST (11/16)
Length of Visible Light 10h 47m
Length of Day
9h 47m
Waxing Crescent, 11% of the Moon is Illuminated
Nov 16
Waxing Crescent
Nov 20
First Quarter
Nov 28
Full
Dec 6
Last Quarter
Dec 13
New

Hourly Weather History & Observations

Time (EST) Temp. Windchill Dew Point Humidity Pressure Visibility Wind Dir Wind Speed Gust Speed Precip Events Conditions
12:52 AM 43.0 °F 39.5 °F 34.0 °F 71% 30.27 in 10.0 mi Variable 5.8 mph - N/A   Overcast
1:52 AM 43.0 °F 40.3 °F 34.0 °F 71% 30.27 in 10.0 mi Variable 4.6 mph - N/A   Overcast
2:52 AM 43.0 °F 40.3 °F 34.0 °F 71% 30.26 in 10.0 mi Variable 4.6 mph - N/A   Overcast
4:52 AM 43.0 °F 41.3 °F 34.0 °F 71% 30.25 in 10.0 mi North 3.5 mph - N/A   Overcast
5:52 AM 44.1 °F 41.5 °F 34.0 °F 68% 30.26 in 10.0 mi Variable 4.6 mph - N/A   Overcast
7:52 AM 44.1 °F 42.5 °F 35.1 °F 71% 30.28 in 10.0 mi Variable 3.5 mph - N/A   Overcast
8:52 AM 46.0 °F 43.1 °F 35.1 °F 66% 30.29 in 10.0 mi NNE 5.8 mph - N/A   Overcast
9:52 AM 46.0 °F 42.5 °F 35.1 °F 66% 30.30 in 10.0 mi Variable 6.9 mph - N/A   Overcast
10:52 AM 46.9 °F - 35.1 °F 63% 30.29 in 10.0 mi NNE 8.1 mph - N/A   Overcast
11:52 AM 46.0 °F 42.5 °F 35.1 °F 66% 30.27 in 10.0 mi NNE 6.9 mph 16.1 mph N/A   Overcast
12:52 PM 46.0 °F 41.9 °F 34.0 °F 63% 30.28 in 10.0 mi NNE 8.1 mph - N/A   Overcast
1:52 PM 46.0 °F 43.1 °F 34.0 °F 63% 30.28 in 10.0 mi NNE 5.8 mph - N/A   Overcast
2:52 PM 45.0 °F 42.6 °F 34.0 °F 65% 30.30 in 10.0 mi North 4.6 mph - N/A   Overcast
3:52 PM 44.1 °F 40.8 °F 34.0 °F 68% 30.29 in 10.0 mi North 5.8 mph - N/A   Scattered Clouds
4:52 PM 42.1 °F 40.2 °F 34.0 °F 73% 30.31 in 10.0 mi Variable 3.5 mph - N/A   Scattered Clouds
4:59 PM 42.8 °F 41.1 °F 33.8 °F 70% 30.31 in 10.0 mi Variable 3.5 mph - N/A   Mostly Cloudy
5:52 PM 43.0 °F 40.3 °F 35.1 °F 74% 30.33 in 10.0 mi Variable 4.6 mph - N/A   Overcast
6:47 PM 42.8 °F 40.1 °F 35.6 °F 76% 30.32 in 10.0 mi Variable 4.6 mph - N/A   Scattered Clouds
6:52 PM 43.0 °F 39.5 °F 35.1 °F 74% 30.33 in 10.0 mi Variable 5.8 mph - N/A   Partly Cloudy
7:34 PM 42.8 °F 40.1 °F 35.6 °F 76% 30.34 in 10.0 mi NNW 4.6 mph - N/A   Mostly Cloudy
7:52 PM 42.1 °F 39.2 °F 34.0 °F 73% 30.36 in 10.0 mi Variable 4.6 mph - N/A   Overcast
8:13 PM 41.0 °F - 33.8 °F 76% 30.35 in 10.0 mi Calm Calm - N/A   Scattered Clouds
8:52 PM 39.9 °F 37.8 °F 33.1 °F 77% 30.37 in 10.0 mi Variable 3.5 mph - N/A   Clear
9:52 PM 39.0 °F - 32.0 °F 76% 30.38 in 10.0 mi Calm Calm - N/A   Clear
10:52 PM 39.0 °F - 32.0 °F 76% 30.39 in 10.0 mi Calm Calm - N/A   Clear
11:52 PM 39.0 °F - 32.0 °F 76% 30.40 in 10.0 mi Calm Calm - N/A   Clear